Location: Unspecified
(0.0000°N, 0.0000°E)
Time: 06:41:28
(UTC+00:00)

deb Delta 139 - Pass Details

Date: 18 February 2026
Orbit: 1498 x 1667 km, 102.4° (Epoch: 6 March)

Event Time Altitude Azimuth Distance (km) Brightness Sun altitude
Rises 03:39:45 0° 2° (N) 4,743 ? -37.6°
Enters shadow 03:39:51 - 2° (N) 4,709 ? -37.6°
Exits shadow 04:01:38 - 212° (SSW) 4,552 ? -32.3°
Sets 04:01:54 0° 211° (SSW) 4,636 ? -32.2°
